Regional Weather Roundup
Issued by NWS Jackson, KY

Home | Current Version | Previous Version | Graphics & Text | Print | Product List | Glossary On
Versions: 1 2 3 4 5 6 7 8 9 10 11 12 13 14 15 16 17 18 19 20 21 22 23 24 25 26 27 28 29 30 31 32 33 34 35 36 37 38 39 40 41 42 43 44 45 46 47 48 49 50
000
ASUS43 KJKL 221005
RWRJKL

EAST KENTUCKY HOURLY WEATHER ROUNDUP
NATIONAL WEATHER SERVICE JACKSON KY
600 AM EDT FRI AUG 22 2014

NOTE: "FAIR" INDICATES FEW OR NO CLOUDS BELOW 12,000 FEET WITH
NO SIGNIFICANT WEATHER AND/OR OBSTRUCTIONS TO VISIBILITY.

* THESE REPORTS ARE NOT UNDER NWS QUALITY CONTROL AND MAY NOT
  REPORT WEATHER SUCH AS PRECIPITATION AND FOG.

KYZ079-080-083-085-087-088-110-112-115-119-120-221100
...EASTERN KENTUCKY...

CITY           SKY/WX    TMP DP  RH WIND       PRES   REMARKS
JACKSON        MOCLDY    72  69  90 CALM      30.07S
LONDON         PTCLDY    72  68  87 S3        30.09R
SOMERSET*      PTCLDY    70  70 100 CALM      30.07S
MONTICELLO*    MOCLDY    69  69 100 CALM      30.08R
WILLIAMSBURG*  CLEAR     72  72 100 CALM      30.08
MIDDLESBORO*   FOG       69  69 100 CALM      30.10R VSB 1/4
HARLAN APT*    CLOUDY    68  66  94 MISG      30.12R VSB<1/4
BLACK MTN*       N/A     68  66  94 CALM        N/A
PIKEVILLE APT* CLEAR     72  68  88 S3        30.07R
BIG SANDY*     CLOUDY    70  70  99 CALM      30.06R
MOREHEAD APT*  CLOUDY    72  70  94 CALM      30.05S
$$

KYZ035-036-041-042-044-050-067-078-099-221100
...CENTRAL KENTUCKY...

CITY           SKY/WX    TMP DP  RH WIND       PRES   REMARKS
MT STERLING*   CLOUDY    73  72  94 SW6       30.04F
FLEMING/MASON* CLOUDY    70  69  98 SW3       30.03R
DANVILLE*      PTCLDY    72  70  94 SW3       30.06S
RICHMOND*      PTCLDY    73  70  88 SW5       30.05S
LEXINGTON      PTCLDY    75  71  87 S7        30.03F
FRANKFORT      CLEAR     72  70  93 S3        30.01S
$$

KYZ091>093-OHZ055-061-077-WVZ005-015-034-035-042-221100
...SOUTHERN OHIO/WEST VIRGINIA...

CITY           SKY/WX    TMP DP  RH WIND       PRES   REMARKS
COVINGTON      CLOUDY    70  68  93 S7        29.99F FOG
COLUMBUS       PTCLDY    70  66  87 CALM      29.98S FOG
DAYTON         LGT RAIN  72  69  90 CALM      30.00S
WILMINGTON     LGT RAIN  69  67  93 SW6       30.00R
HUNTINGTON     CLOUDY    70  70 100 CALM      30.01R
CHARLESTON     CLOUDY    70  70 100 CALM      30.02F
PINEVILLE*     CLOUDY    67  67 100 MISG      30.14R FOG
BECKLEY        MOCLDY    68  65  90 SW9       30.11S
BLUEFIELD      PTCLDY    69  65  86 SW8       30.15S
$$

VAZ002-007-008-TNZ017-027-036-066-071-221100
...SOUTHWEST VIRGINIA/EAST TENNESSEE...

CITY           SKY/WX    TMP DP  RH WIND       PRES   REMARKS
WISE*          PTCLDY    68  68 100 SW6       30.17R
JONESVILLE*      N/A     64  64 100 CALM      30.13R FOG
ABINGDON*      FOG       68  68 100 CALM      30.15R VSB 1/4
BRISTOL        FOG       70  68  93 CALM      30.12R VSB 1/4
KNOXVILLE      MOCLDY    73  69  87 W5        30.08R
OAK RIDGE      PTCLDY    74  72  93 CALM      30.10R
CROSSVILLE     MOCLDY    69  67  93 CALM      30.14R FOG
NASHVILLE      PTCLDY    74  72  93 S3        30.05R
$$

...KEY TO REMARKS...
VSB - VISIBILITY IN MILES
WCI - WIND CHILL INDEX
HX  - HEAT INDEX

$$


USA.gov is the U.S. government's official web portal to all federal, state and local government web resources and services.